This is the latest recevied weather packets stored in our database for station/object K6CED. If no packets are shown the sender has not sent any weather packets the latest 10 day(s).
| Time | Temp. | Humidity | Pressure | Rain* | Wind** | Luminosity | Snow |
|---|---|---|---|---|---|---|---|
| 1788050791 | 33.33° C | 42% | 1013.1 hPa | 0 mm | - | 130 W/m² | - |
| 1788050486 | 33.89° C | 42% | 1013 hPa | 0 mm | - | 147 W/m² | - |
| 1788050181 | 33.89° C | 41% | 1013 hPa | 0 mm | - | 163 W/m² | - |
| 1788049875 | 34.44° C | 40% | 1012.9 hPa | 0 mm | - | 183 W/m² | - |
| 1788049573 | 34.44° C | 39% | 1012.8 hPa | 0 mm | - | 201 W/m² | - |
| 1788049264 | 34.44° C | 39% | 1013 hPa | 0 mm | - | 212 W/m² | - |
| 1788048964 | 35° C | 39% | 1013.2 hPa | 0 mm | - | 229 W/m² | - |
| 1788048659 | 34.44° C | 40% | 1013 hPa | 0 mm | - | 249 W/m² | - |
| 1788048355 | 34.44° C | 39% | 1013.1 hPa | 0 mm | - | 271 W/m² | - |
| 1788048051 | 33.89° C | 42% | 1013.2 hPa | 0 mm | - | 293 W/m² | - |
| 1788047748 | 34.44° C | 41% | 1012.9 hPa | 0 mm | - | 308 W/m² | - |
| 1788047448 | 34.44° C | 40% | 1013 hPa | 0 mm | - | 318 W/m² | - |
| 1788047143 | 34.44° C | 41% | 1013.1 hPa | 0 mm | - | 335 W/m² | - |
| 1788046838 | 35° C | 40% | 1012.9 hPa | 0 mm | - | 350 W/m² | - |
| 1788046537 | 35° C | 39% | 1013.1 hPa | 0 mm | - | 362 W/m² | - |
| 1788046233 | 35° C | 38% | 1013.1 hPa | 0 mm | - | 379 W/m² | - |
| 1788045930 | 36.11° C | 36% | 1013 hPa | 0 mm | - | 397 W/m² | - |
| 1788045626 | 36.11° C | 35% | 1012.7 hPa | 0 mm | - | 419 W/m² | - |
| 1788045320 | 36.11° C | 36% | 1012.9 hPa | 0 mm | - | 438 W/m² | - |
| 1788045016 | 35.56° C | 36% | 1013 hPa | 0 mm | - | 458 W/m² | - |
| 1788044714 | 35.56° C | 36% | 1013.2 hPa | 0 mm | - | 478 W/m² | - |
| 1788044410 | 36.11° C | 36% | 1013.1 hPa | 0 mm | - | 493 W/m² | - |
| 1788044104 | 36.11° C | 36% | 1013 hPa | 0 mm | - | 511 W/m² | - |
| 1788043801 | 36.11° C | 36% | 1013.1 hPa | 0 mm | - | 526 W/m² | - |
| 1788043500 | 36.11° C | 36% | 1013 hPa | 0 mm | - | 541 W/m² | - |
* Rain latest hour (hover to see other rain measurements)
** Current wind speed in m/s (hover to see current wind gust speed)